QPF
0.00 0.00 0.00 0.00 0.00 0.00 0.00 0.00 0.00 0.01 0.01 0.01 0.01 0.01 0.01 0.00 0.00 0.00 0.00 0.00 0.00 0.00 0.00 0.00 0.00 0.00 0.00 0.01 0.01 0.01 0.01 0.01 0.01 0.02 0.03 0.03 0.03 0.02 0.02 0.02 0.03 0.03 0.04 0.04
0.00 0.00 0.00 0.00 0.00 0.00 0.00 0.00 0.00 0.01 0.01 0.02 0.02 0.02 0.01 0.01 0.01 0.01 0.00 0.00 0.00 0.00 0.00 0.00 0.00 0.00 0.01 0.01 0.01 0.01 0.03 0.03 0.02 0.02 0.03 0.04 0.05 0.05 0.05 0.05 0.06 0.06 0.06 0.06
0.00 0.00 0.00 0.00 0.00 0.00 0.00 0.00 0.01 0.01 0.01 0.02 0.03 0.03 0.02 0.01 0.01 0.01 0.01 0.01 0.01 0.01 0.01 0.01 0.00 0.01 0.01 0.01 0.02 0.03 0.04 0.04 0.03 0.02 0.03 0.05 0.05 0.06 0.06 0.06 0.05 0.04 0.03 0.03
0.00 0.00 0.00 0.00 0.00 0.00 0.01 0.01 0.01 0.01 0.02 0.03 0.05 0.04 0.03 0.02 0.01 0.01 0.01 0.01 0.00 0.00 0.01 0.01 0.01 0.01 0.02 0.02 0.03 0.03 0.04 0.06 0.06 0.06 0.05 0.06 0.05 0.07 0.08 0.07 0.05 0.05 0.04 0.04
0.00 0.00 0.00 0.00 0.00 0.00 0.01 0.01 0.02 0.03 0.03 0.03 0.04 0.04 0.03 0.02 0.01 0.01 0.01 0.00 0.00 0.00 0.00 0.00 0.00 0.00 0.01 0.01 0.02 0.03 0.05 0.07 0.07 0.07 0.08 0.07 0.06 0.05 0.06 0.07 0.07 0.08 0.07 0.07
0.00 0.00 0.00 0.00 0.00 0.00 0.01 0.01 0.02 0.03 0.05 0.05 0.03 0.03 0.03 0.02 0.01 0.01 0.01 0.01 0.01 0.00 0.00 0.00 0.00 0.00 0.01 0.01 0.02 0.03 0.05 0.05 0.05 0.05 0.06 0.07 0.06 0.04 0.04 0.04 0.06 0.08 0.09 0.09
0.00 0.00 0.00 0.00 0.00 0.00 0.01 0.01 0.01 0.01 0.02 0.03 0.05 0.04 0.03 0.02 0.01 0.01 0.01 0.01 0.01 0.01 0.01 0.01 0.00 0.00 0.00 0.00 0.01 0.02 0.03 0.03 0.05 0.05 0.05 0.06 0.06 0.04 0.04 0.03 0.03 0.04 0.06 0.07
0.00 0.00 0.00 0.00 0.00 0.00 0.00 0.00 0.00 0.01 0.01 0.01 0.01 0.01 0.01 0.01 0.01 0.01 0.01 0.01 0.02 0.02 0.02 0.01 0.01 0.00 0.00 0.01 0.01 0.03 0.03 0.02 0.03 0.04 0.04 0.04 0.05 0.05 0.04 0.04 0.03 0.04 0.05 0.05
0.00 0.00 0.00 0.00 0.00 0.00 0.00 0.00 0.00 0.00 0.00 0.00 0.00 0.00 0.00 0.00 0.00 0.01 0.01 0.01 0.03 0.04 0.04 0.02 0.02 0.01 0.01 0.01 0.02 0.02 0.02 0.01 0.02 0.02 0.03 0.03 0.04 0.03 0.03 0.03 0.03 0.04 0.05 0.05
0.00 0.00 0.00 0.00 0.00 0.00 0.00 0.00 0.00 0.00 0.00 0.00 0.00 0.00 0.00 0.00 0.00 0.01 0.01 0.01 0.02 0.03 0.04 0.04 0.03 0.02 0.02 0.02 0.02 0.02 0.01 0.01 0.02 0.03 0.03 0.04 0.05 0.05 0.04 0.04 0.04 0.04 0.05 0.04
0.00 0.00 0.00 0.00 0.00 0.00 0.00 0.00 0.00 0.00 0.00 0.00 0.00 0.00 0.01 0.01 0.01 0.01 0.01 0.01 0.01 0.01 0.02 0.03 0.04 0.03 0.02 0.02 0.02 0.02 0.02 0.02 0.02 0.03 0.03 0.03 0.04 0.04 0.04 0.05 0.06 0.05 0.04 0.03
0.00 0.00 0.00 0.00 0.00 0.00 0.00 0.00 0.00 0.00 0.00 0.00 0.00 0.01 0.01 0.01 0.01 0.01 0.01 0.01 0.01 0.01 0.01 0.02 0.02 0.02 0.01 0.02 0.02 0.02 0.02 0.02 0.03 0.03 0.04 0.04 0.04 0.03 0.04 0.04 0.05 0.05 0.04 0.04
0.00 0.00 0.00 0.00 0.00 0.00 0.00 0.00 0.00 0.00 0.00 0.00 0.00 0.00 0.01 0.00 0.00 0.01 0.01 0.01 0.00 0.00 0.01 0.01 0.02 0.02 0.02 0.02 0.02 0.02 0.02 0.02 0.02 0.02 0.04 0.06 0.05 0.05 0.06 0.06 0.06 0.06 0.06 0.05
0.00 0.00 0.00 0.00 0.00 0.00 0.00 0.00 0.00 0.00 0.00 0.00 0.01 0.00 0.01 0.01 0.00 0.01 0.01 0.01 0.01 0.01 0.01 0.01 0.02 0.02 0.02 0.02 0.01 0.01 0.02 0.02 0.02 0.03 0.05 0.06 0.07 0.08 0.09 0.09 0.08 0.06 0.05 0.04
0.00 0.00 0.00 0.00 0.00 0.00 0.00 0.00 0.00 0.00 0.00 0.00 0.00 0.00 0.01 0.01 0.01 0.01 0.01 0.01 0.01 0.01 0.02 0.03 0.02 0.02 0.03 0.03 0.02 0.02 0.02 0.03 0.04 0.05 0.05 0.06 0.08 0.08 0.09 0.09 0.08 0.06 0.04 0.03
0.00 0.00 0.00 0.01 0.01 0.00 0.00 0.01 0.01 0.00 0.00 0.00 0.00 0.00 0.00 0.01 0.01 0.02 0.02 0.03 0.02 0.03 0.03 0.03 0.03 0.03 0.03 0.03 0.03 0.03 0.04 0.05 0.05 0.05 0.05 0.06 0.07 0.08 0.09 0.08 0.06 0.05 0.05 0.03
0.02 0.01 0.01 0.01 0.01 0.00 0.00 0.01 0.01 0.00 0.00 0.01 0.01 0.01 0.03 0.04 0.05 0.04 0.03 0.02 0.03 0.03 0.04 0.04 0.04 0.05 0.04 0.03 0.03 0.03 0.04 0.07 0.09 0.07 0.06 0.06 0.06 0.07 0.08 0.08 0.07 0.05 0.04 0.03
0.03 0.03 0.02 0.01 0.01 0.01 0.01 0.01 0.01 0.01 0.02 0.02 0.04 0.04 0.04 0.04 0.05 0.03 0.03 0.02 0.03 0.03 0.04 0.05 0.06 0.07 0.06 0.05 0.04 0.05 0.05 0.05 0.07 0.09 0.09 0.09 0.08 0.08 0.08 0.08 0.06 0.05 0.05 0.05
0.03 0.03 0.02 0.02 0.02 0.02 0.03 0.03 0.03 0.03 0.04 0.05 0.04 0.03 0.02 0.03 0.03 0.03 0.03 0.03 0.04 0.04 0.04 0.06 0.07 0.06 0.05 0.06 0.06 0.06 0.06 0.07 0.07 0.07 0.08 0.09 0.09 0.09 0.09 0.08 0.07 0.05 0.05 0.04
0.02 0.02 0.02 0.03 0.03 0.04 0.05 0.04 0.04 0.05 0.04 0.04 0.03 0.02 0.02 0.02 0.02 0.02 0.03 0.03 0.03 0.04 0.04 0.04 0.04 0.03 0.04 0.05 0.06 0.06 0.05 0.06 0.06 0.06 0.06 0.07 0.07 0.06 0.07 0.06 0.06 0.06 0.06 0.04
0.03 0.04 0.04 0.04 0.04 0.04 0.05 0.06 0.06 0.05 0.04 0.03 0.03 0.03 0.03 0.02 0.02 0.02 0.03 0.03 0.03 0.03 0.03 0.03 0.03 0.04 0.03 0.04 0.04 0.05 0.05 0.06 0.04 0.05 0.07 0.07 0.06 0.06 0.06 0.06 0.06 0.06 0.05 0.05
0.02 0.02 0.02 0.02 0.03 0.04 0.04 0.05 0.05 0.05 0.04 0.04 0.03 0.03 0.03 0.02 0.03 0.03 0.04 0.03 0.03 0.02 0.03 0.03 0.03 0.03 0.04 0.04 0.03 0.03 0.04 0.05 0.04 0.05 0.07 0.07 0.05 0.04 0.04 0.04 0.04 0.04 0.03 0.03
0.03 0.03 0.03 0.02 0.03 0.03 0.03 0.03 0.04 0.05 0.05 0.04 0.03 0.03 0.03 0.02 0.03 0.03 0.03 0.02 0.01 0.01 0.03 0.04 0.03 0.03 0.03 0.03 0.03 0.04 0.05 0.06 0.05 0.04 0.05 0.06 0.04 0.03 0.03 0.03 0.03 0.03 0.03 0.02
0.05 0.03 0.03 0.03 0.03 0.03 0.04 0.04 0.04 0.05 0.04 0.04 0.04 0.03 0.03 0.03 0.03 0.02 0.02 0.01 0.01 0.01 0.02 0.03 0.03 0.03 0.04 0.04 0.07 0.09 0.08 0.08 0.06 0.05 0.05 0.05 0.05 0.03 0.02 0.02 0.02 0.02 0.02 0.02
0.04 0.05 0.04 0.03 0.03 0.03 0.04 0.04 0.04 0.03 0.03 0.03 0.03 0.03 0.03 0.02 0.02 0.02 0.02 0.02 0.02 0.02 0.03 0.04 0.04 0.04 0.05 0.07 0.09 0.09 0.08 0.07 0.07 0.06 0.05 0.04 0.04 0.03 0.01 0.01 0.01 0.02 0.03 0.03
0.02 0.02 0.02 0.02 0.02 0.02 0.03 0.03 0.03 0.02 0.03 0.03 0.03 0.03 0.03 0.02 0.02 0.02 0.02 0.02 0.02 0.02 0.03 0.04 0.05 0.06 0.06 0.09 0.10 0.09 0.08 0.07 0.06 0.05 0.05 0.05 0.04 0.02 0.01 0.01 0.01 0.02 0.03 0.05
0.01 0.02 0.02 0.02 0.01 0.02 0.03 0.04 0.03 0.03 0.03 0.03 0.04 0.03 0.04 0.04 0.04 0.04 0.02 0.02 0.02 0.03 0.03 0.03 0.04 0.05 0.07 0.09 0.09 0.08 0.08 0.07 0.06 0.05 0.05 0.05 0.04 0.02 0.01 0.01 0.01 0.01 0.01 0.03
MSLP
1007.34 1007.60 1007.83 1008.03 1008.20 1008.32 1008.37 1008.34 1008.23 1008.05 1007.82 1007.58 1007.38 1007.26 1007.26 1007.41 1007.70 1008.13 1008.67 1009.28 1009.91 1010.53 1011.11 1011.62 1012.06 1012.43 1012.74 1013.01 1013.23 1013.42 1013.57 1013.68 1013.74 1013.76 1013.74 1013.70 1013.63 1013.56 1013.51 1013.47 1013.45 1013.43 1013.42 1013.40
1007.42 1007.64 1007.81 1007.92 1007.98 1007.98 1007.93 1007.83 1007.70 1007.54 1007.38 1007.23 1007.14 1007.11 1007.18 1007.35 1007.64 1008.01 1008.47 1008.99 1009.53 1010.08 1010.62 1011.12 1011.59 1012.02 1012.41 1012.75 1013.04 1013.28 1013.47 1013.60 1013.67 1013.68 1013.66 1013.60 1013.53 1013.47 1013.43 1013.40 1013.40 1013.42 1013.43 1013.43
1007.49 1007.68 1007.79 1007.82 1007.77 1007.67 1007.53 1007.36 1007.20 1007.05 1006.93 1006.86 1006.84 1006.88 1007.00 1007.19 1007.46 1007.79 1008.18 1008.62 1009.09 1009.59 1010.10 1010.61 1011.11 1011.60 1012.06 1012.47 1012.84 1013.13 1013.36 1013.51 1013.58 1013.60 1013.56 1013.50 1013.43 1013.37 1013.33 1013.32 1013.33 1013.35 1013.38 1013.39
1007.46 1007.63 1007.69 1007.64 1007.51 1007.31 1007.09 1006.88 1006.68 1006.53 1006.44 1006.42 1006.46 1006.56 1006.73 1006.94 1007.20 1007.51 1007.86 1008.24 1008.67 1009.13 1009.63 1010.15 1010.69 1011.23 1011.75 1012.23 1012.65 1012.99 1013.25 1013.41 1013.50 1013.51 1013.47 1013.40 1013.33 1013.27 1013.23 1013.22 1013.23 1013.25 1013.27 1013.29
1007.29 1007.43 1007.44 1007.33 1007.13 1006.87 1006.59 1006.32 1006.11 1005.96 1005.90 1005.92 1006.02 1006.17 1006.38 1006.63 1006.91 1007.21 1007.54 1007.91 1008.31 1008.76 1009.26 1009.79 1010.36 1010.94 1011.50 1012.03 1012.49 1012.87 1013.14 1013.32 1013.41 1013.42 1013.38 1013.31 1013.23 1013.16 1013.12 1013.10 1013.11 1013.12 1013.13 1013.13
1006.96 1007.06 1007.02 1006.87 1006.62 1006.31 1005.99 1005.70 1005.48 1005.35 1005.32 1005.38 1005.53 1005.75 1006.01 1006.30 1006.61 1006.94 1007.28 1007.64 1008.04 1008.49 1008.99 1009.54 1010.12 1010.73 1011.32 1011.87 1012.35 1012.74 1013.03 1013.22 1013.31 1013.32 1013.27 1013.19 1013.11 1013.04 1012.99 1012.96 1012.95 1012.94 1012.94 1012.92
1006.50 1006.55 1006.48 1006.30 1006.02 1005.68 1005.35 1005.06 1004.84 1004.73 1004.73 1004.84 1005.05 1005.33 1005.65 1005.99 1006.34 1006.70 1007.06 1007.44 1007.85 1008.30 1008.80 1009.35 1009.94 1010.54 1011.14 1011.70 1012.19 1012.59 1012.88 1013.07 1013.16 1013.17 1013.12 1013.03 1012.94 1012.86 1012.79 1012.75 1012.73 1012.71 1012.69 1012.65
1005.98 1005.99 1005.89 1005.68 1005.39 1005.05 1004.72 1004.45 1004.25 1004.17 1004.21 1004.37 1004.62 1004.95 1005.32 1005.71 1006.10 1006.49 1006.88 1007.27 1007.69 1008.13 1008.63 1009.16 1009.73 1010.32 1010.91 1011.46 1011.94 1012.34 1012.64 1012.83 1012.92 1012.93 1012.88 1012.79 1012.69 1012.59 1012.51 1012.46 1012.42 1012.38 1012.35 1012.32
1005.48 1005.44 1005.32 1005.10 1004.81 1004.49 1004.19 1003.94 1003.78 1003.73 1003.80 1003.99 1004.28 1004.65 1005.05 1005.47 1005.89 1006.30 1006.70 1007.09 1007.49 1007.92 1008.39 1008.90 1009.44 1010.00 1010.56 1011.09 1011.57 1011.96 1012.26 1012.46 1012.55 1012.57 1012.52 1012.42 1012.32 1012.21 1012.12 1012.05 1012.00 1011.96 1011.94 1011.91
1005.07 1005.00 1004.86 1004.64 1004.37 1004.08 1003.81 1003.59 1003.47 1003.45 1003.55 1003.76 1004.06 1004.44 1004.85 1005.28 1005.70 1006.10 1006.49 1006.86 1007.23 1007.62 1008.05 1008.51 1009.01 1009.53 1010.06 1010.57 1011.03 1011.42 1011.73 1011.94 1012.05 1012.08 1012.03 1011.94 1011.83 1011.71 1011.61 1011.53 1011.48 1011.45 1011.45 1011.46
1004.81 1004.70 1004.55 1004.34 1004.10 1003.84 1003.61 1003.43 1003.34 1003.34 1003.45 1003.67 1003.97 1004.33 1004.73 1005.13 1005.52 1005.89 1006.24 1006.57 1006.89 1007.23 1007.60 1008.00 1008.45 1008.92 1009.41 1009.90 1010.35 1010.75 1011.07 1011.30 1011.44 1011.49 1011.46 1011.38 1011.27 1011.14 1011.04 1010.95 1010.91 1010.90 1010.93 1010.98
1004.68 1004.56 1004.40 1004.20 1003.99 1003.77 1003.58 1003.44 1003.37 1003.39 1003.50 1003.70 1003.98 1004.31 1004.67 1005.02 1005.37 1005.68 1005.97 1006.24 1006.50 1006.77 1007.07 1007.42 1007.81 1008.24 1008.69 1009.16 1009.61 1010.02 1010.36 1010.62 1010.79 1010.87 1010.86 1010.80 1010.70 1010.58 1010.47 1010.40 1010.36 1010.38 1010.45 1010.56
1004.67 1004.53 1004.37 1004.20 1004.01 1003.84 1003.68 1003.57 1003.52 1003.55 1003.66 1003.84 1004.08 1004.37 1004.67 1004.97 1005.25 1005.50 1005.73 1005.93 1006.12 1006.33 1006.57 1006.85 1007.19 1007.57 1008.00 1008.45 1008.90 1009.32 1009.69 1009.99 1010.19 1010.31 1010.34 1010.30 1010.21 1010.11 1010.01 1009.94 1009.93 1009.97 1010.07 1010.23
1004.71 1004.56 1004.41 1004.26 1004.11 1003.97 1003.85 1003.77 1003.74 1003.78 1003.88 1004.03 1004.24 1004.48 1004.73 1004.97 1005.19 1005.39 1005.55 1005.70 1005.83 1005.98 1006.16 1006.40 1006.69 1007.04 1007.44 1007.88 1008.33 1008.77 1009.17 1009.49 1009.74 1009.90 1009.96 1009.95 1009.89 1009.81 1009.72 1009.67 1009.66 1009.73 1009.86 1010.05
1004.78 1004.63 1004.49 1004.36 1004.24 1004.14 1004.05 1004.00 1003.99 1004.04 1004.13 1004.27 1004.45 1004.65 1004.86 1005.06 1005.23 1005.38 1005.50 1005.60 1005.69 1005.80 1005.94 1006.14 1006.39 1006.71 1007.09 1007.52 1007.98 1008.43 1008.85 1009.21 1009.49 1009.69 1009.79 1009.82 1009.79 1009.72 1009.65 1009.61 1009.61 1009.68 1009.82 1010.04
1004.85 1004.71 1004.59 1004.48 1004.39 1004.32 1004.27 1004.24 1004.26 1004.31 1004.41 1004.54 1004.70 1004.88 1005.06 1005.23 1005.38 1005.50 1005.60 1005.68 1005.75 1005.83 1005.95 1006.11 1006.34 1006.64 1007.00 1007.42 1007.87 1008.32 1008.76 1009.14 1009.45 1009.68 1009.82 1009.88 1009.88 1009.84 1009.78 1009.75 1009.75 1009.82 1009.95 1010.15
1004.94 1004.81 1004.71 1004.63 1004.57 1004.53 1004.51 1004.51 1004.55 1004.62 1004.72 1004.85 1005.01 1005.18 1005.35 1005.51 1005.66 1005.77 1005.86 1005.93 1006.00 1006.07 1006.18 1006.33 1006.54 1006.81 1007.15 1007.55 1007.99 1008.44 1008.87 1009.26 1009.59 1009.85 1010.02 1010.11 1010.13 1010.11 1010.06 1010.03 1010.03 1010.08 1010.19 1010.36
1005.09 1004.98 1004.90 1004.84 1004.81 1004.79 1004.80 1004.83 1004.89 1004.98 1005.09 1005.23 1005.40 1005.57 1005.74 1005.90 1006.05 1006.17 1006.27 1006.34 1006.41 1006.49 1006.59 1006.73 1006.93 1007.18 1007.50 1007.87 1008.28 1008.71 1009.12 1009.51 1009.85 1010.11 1010.30 1010.40 1010.45 1010.44 1010.41 1010.38 1010.36 1010.39 1010.46 1010.59
1005.33 1005.25 1005.19 1005.16 1005.15 1005.16 1005.19 1005.24 1005.32 1005.42 1005.54 1005.69 1005.86 1006.04 1006.22 1006.39 1006.55 1006.68 1006.79 1006.88 1006.96 1007.05 1007.15 1007.28 1007.46 1007.69 1007.97 1008.30 1008.67 1009.06 1009.45 1009.81 1010.13 1010.39 1010.58 1010.70 1010.76 1010.77 1010.75 1010.71 1010.69 1010.69 1010.72 1010.79
1005.71 1005.64 1005.60 1005.59 1005.60 1005.63 1005.67 1005.74 1005.83 1005.94 1006.07 1006.23 1006.40 1006.58 1006.77 1006.95 1007.11 1007.26 1007.38 1007.49 1007.58 1007.67 1007.77 1007.90 1008.06 1008.26 1008.50 1008.79 1009.11 1009.45 1009.79 1010.12 1010.41 1010.65 1010.83 1010.95 1011.02 1011.04 1011.02 1010.99 1010.96 1010.94 1010.94 1010.97
1006.20 1006.15 1006.13 1006.13 1006.15 1006.18 1006.24 1006.31 1006.40 1006.52 1006.65 1006.81 1006.98 1007.17 1007.36 1007.54 1007.71 1007.87 1008.01 1008.12 1008.23 1008.33 1008.43 1008.55 1008.69 1008.86 1009.06 1009.30 1009.57 1009.85 1010.14 1010.41 1010.66 1010.87 1011.04 1011.15 1011.22 1011.25 1011.24 1011.22 1011.19 1011.16 1011.15 1011.15
1006.78 1006.75 1006.73 1006.74 1006.75 1006.79 1006.84 1006.91 1007.00 1007.12 1007.25 1007.41 1007.58 1007.76 1007.95 1008.14 1008.32 1008.48 1008.63 1008.76 1008.88 1008.98 1009.09 1009.20 1009.32 1009.47 1009.64 1009.83 1010.04 1010.27 1010.50 1010.72 1010.92 1011.10 1011.24 1011.35 1011.41 1011.45 1011.46 1011.45 1011.43 1011.41 1011.38 1011.37
1007.39 1007.36 1007.35 1007.35 1007.36 1007.39 1007.43 1007.50 1007.58 1007.69 1007.82 1007.97 1008.14 1008.32 1008.52 1008.71 1008.89 1009.07 1009.23 1009.38 1009.51 1009.63 1009.74 1009.86 1009.97 1010.10 1010.24 1010.39 1010.56 1010.73 1010.91 1011.08 1011.24 1011.38 1011.50 1011.60 1011.66 1011.71 1011.73 1011.74 1011.74 1011.73 1011.71 1011.68
1007.98 1007.95 1007.93 1007.91 1007.91 1007.93 1007.97 1008.02 1008.10 1008.20 1008.33 1008.48 1008.65 1008.84 1009.03 1009.23 1009.43 1009.62 1009.80 1009.97 1010.12 1010.26 1010.39 1010.52 1010.63 1010.76 1010.88 1011.01 1011.14 1011.28 1011.41 1011.54 1011.66 1011.78 1011.87 1011.95 1012.02 1012.08 1012.12 1012.14 1012.16 1012.16 1012.15 1012.12
1008.50 1008.46 1008.43 1008.41 1008.39 1008.40 1008.42 1008.47 1008.55 1008.65 1008.78 1008.93 1009.11 1009.30 1009.51 1009.72 1009.93 1010.14 1010.34 1010.53 1010.71 1010.87 1011.03 1011.17 1011.30 1011.43 1011.56 1011.67 1011.79 1011.90 1012.01 1012.11 1012.20 1012.29 1012.37 1012.45 1012.51 1012.57 1012.62 1012.67 1012.69 1012.70 1012.69 1012.66
1008.94 1008.90 1008.86 1008.82 1008.80 1008.80 1008.82 1008.87 1008.94 1009.05 1009.19 1009.35 1009.54 1009.74 1009.96 1010.18 1010.41 1010.64 1010.85 1011.07 1011.27 1011.46 1011.64 1011.80 1011.96 1012.10 1012.24 1012.36 1012.48 1012.58 1012.67 1012.76 1012.84 1012.91 1012.98 1013.05 1013.11 1013.17 1013.22 1013.26 1013.29 1013.30 1013.28 1013.22
1009.31 1009.27 1009.22 1009.19 1009.17 1009.17 1009.20 1009.25 1009.34 1009.46 1009.61 1009.78 1009.98 1010.19 1010.42 1010.65 1010.88 1011.12 1011.34 1011.57 1011.79 1011.99 1012.19 1012.38 1012.56 1012.73 1012.88 1013.02 1013.14 1013.25 1013.34 1013.43 1013.50 1013.56 1013.62 1013.68 1013.73 1013.78 1013.82 1013.85 1013.86 1013.85 1013.80 1013.70
Thickness
5775 5780 5780 5775 5775 5776 5773 5775 5772 5777 5778 5783 5783 5782 5782 5783 5783 5783 5783 5784 5785 5785 5786 5786 5785 5783 5782 5781 5780 5777 5774 5772 5771 5770 5769 5767 5765 5764 5762 5759 5758 5755 5752 5750
5758 5767 5769 5765 5770 5771 5770 5772 5771 5771 5772 5783 5780 5778 5773 5773 5773 5773 5773 5775 5777 5777 5777 5776 5776 5775 5774 5773 5771 5769 5767 5766 5765 5764 5764 5763 5761 5759 5757 5755 5754 5751 5748 5746
5747 5757 5754 5749 5763 5765 5765 5768 5765 5760 5765 5771 5766 5764 5763 5764 5765 5765 5766 5767 5768 5768 5769 5768 5768 5767 5766 5765 5764 5761 5759 5758 5758 5758 5757 5757 5756 5754 5751 5750 5748 5745 5743 5741
5741 5735 5721 5754 5768 5765 5760 5759 5761 5758 5758 5758 5756 5756 5757 5758 5758 5758 5759 5759 5760 5762 5762 5763 5763 5761 5759 5758 5755 5752 5751 5750 5750 5749 5749 5749 5747 5746 5744 5743 5741 5739 5737 5736
5731 5726 5732 5743 5749 5750 5745 5742 5751 5748 5747 5747 5749 5749 5748 5749 5749 5748 5750 5752 5753 5754 5756 5756 5755 5754 5751 5748 5747 5744 5743 5742 5742 5742 5741 5740 5738 5737 5736 5735 5733 5732 5730 5729
5719 5712 5714 5734 5742 5746 5737 5725 5739 5739 5736 5737 5736 5732 5734 5738 5739 5740 5741 5743 5743 5745 5745 5745 5744 5745 5742 5740 5738 5736 5735 5734 5734 5733 5731 5730 5729 5728 5727 5726 5725 5725 5724 5722
5709 5707 5719 5728 5732 5730 5711 5715 5727 5729 5727 5727 5725 5724 5724 5726 5727 5729 5729 5731 5732 5733 5733 5733 5734 5734 5731 5730 5729 5729 5728 5726 5725 5723 5722 5721 5720 5718 5717 5717 5716 5716 5716 5715
5701 5696 5703 5716 5717 5711 5709 5715 5717 5717 5716 5714 5714 5715 5715 5714 5714 5716 5717 5719 5720 5720 5721 5722 5723 5722 5720 5719 5720 5720 5718 5716 5715 5714 5714 5714 5710 5708 5708 5707 5706 5706 5705 5705
5698 5697 5698 5703 5703 5703 5705 5703 5704 5705 5705 5704 5703 5703 5703 5703 5704 5704 5705 5707 5709 5709 5709 5710 5711 5710 5708 5709 5710 5708 5707 5706 5705 5705 5703 5703 5700 5698 5698 5697 5698 5698 5697 5696
5682 5687 5689 5691 5692 5693 5693 5692 5694 5695 5694 5694 5692 5692 5692 5692 5692 5693 5694 5695 5697 5697 5697 5697 5698 5699 5699 5699 5699 5697 5696 5696 5696 5694 5693 5692 5690 5691 5690 5689 5689 5688 5687 5686
5669 5674 5676 5678 5679 5680 5680 5682 5683 5683 5684 5683 5682 5682 5681 5681 5681 5682 5683 5684 5685 5685 5685 5686 5688 5688 5688 5689 5688 5687 5686 5687 5686 5686 5684 5682 5681 5681 5681 5681 5681 5677 5677 5677
5661 5666 5665 5665 5669 5670 5669 5670 5671 5671 5672 5674 5673 5671 5671 5671 5671 5671 5672 5673 5673 5674 5675 5676 5677 5677 5678 5678 5677 5676 5676 5677 5678 5678 5676 5674 5672 5670 5668 5668 5666 5664 5663 5663
5654 5656 5657 5658 5660 5661 5660 5661 5662 5662 5661 5661 5662 5662 5661 5660 5660 5661 5660 5661 5662 5663 5664 5665 5666 5666 5667 5668 5667 5666 5665 5667 5668 5669 5668 5666 5665 5663 5661 5657 5653 5651 5649 5649
5644 5644 5643 5647 5648 5651 5652 5652 5653 5653 5653 5652 5652 5651 5650 5650 5650 5649 5650 5651 5652 5653 5653 5654 5655 5655 5656 5657 5656 5656 5656 5657 5657 5657 5657 5657 5656 5655 5654 5651 5648 5645 5639 5636
5635 5636 5637 5639 5639 5641 5642 5643 5642 5642 5642 5642 5642 5640 5639 5638 5638 5639 5640 5641 5641 5641 5642 5643 5643 5644 5645 5646 5646 5646 5647 5648 5648 5648 5647 5647 5646 5645 5643 5641 5639 5637 5633 5628
5628 5630 5630 5630 5630 5631 5632 5632 5632 5632 5632 5632 5631 5630 5629 5629 5628 5628 5629 5629 5628 5630 5630 5631 5631 5633 5634 5634 5634 5636 5636 5635 5634 5636 5636 5635 5635 5634 5632 5632 5630 5627 5624 5621
5619 5620 5621 5621 5621 5622 5623 5623 5623 5623 5622 5621 5620 5620 5619 5618 5617 5617 5618 5619 5619 5619 5619 5619 5620 5621 5621 5622 5623 5625 5627 5627 5623 5624 5626 5625 5624 5623 5623 5622 5620 5619 5617 5613
5615 5615 5615 5615 5614 5614 5614 5613 5613 5613 5613 5612 5611 5610 5609 5608 5607 5607 5608 5608 5608 5608 5608 5608 5608 5609 5610 5611 5612 5615 5616 5617 5616 5616 5615 5614 5613 5613 5612 5611 5609 5608 5607 5604
5610 5609 5609 5608 5608 5607 5606 5605 5605 5605 5604 5604 5602 5601 5600 5600 5599 5598 5598 5597 5597 5597 5598 5598 5596 5598 5599 5600 5600 5602 5605 5606 5605 5604 5604 5601 5602 5602 5601 5600 5600 5599 5598 5596
5603 5603 5603 5602 5602 5601 5600 5599 5599 5598 5597 5596 5595 5593 5592 5592 5591 5591 5590 5588 5589 5589 5589 5587 5588 5589 5590 5590 5589 5593 5594 5595 5595 5595 5594 5594 5593 5592 5592 5592 5590 5589 5589 5588
5597 5597 5596 5596 5596 5595 5594 5593 5592 5590 5590 5589 5587 5585 5585 5584 5584 5583 5583 5583 5581 5579 5578 5577 5580 5580 5581 5581 5581 5585 5586 5586 5586 5586 5585 5585 5585 5584 5583 5582 5582 5581 5580 5579
5591 5591 5591 5590 5589 5588 5587 5587 5586 5584 5583 5582 5581 5580 5579 5578 5578 5577 5575 5574 5573 5570 5571 5574 5575 5572 5572 5572 5577 5579 5579 5578 5577 5577 5577 5577 5577 5576 5575 5574 5574 5573 5572 5571
5586 5586 5585 5584 5582 5581 5581 5580 5579 5578 5576 5575 5574 5572 5572 5571 5571 5570 5569 5568 5567 5563 5566 5568 5564 5561 5561 5566 5570 5571 5571 5570 5569 5569 5569 5569 5569 5568 5567 5566 5566 5565 5564 5563
5580 5580 5579 5578 5578 5576 5575 5574 5573 5572 5571 5570 5569 5567 5565 5565 5565 5564 5562 5558 5556 5556 5559 5556 5553 5553 5553 5559 5561 5561 5560 5560 5560 5560 5560 5560 5560 5559 5559 5559 5558 5557 5556 5554
5576 5575 5574 5573 5572 5572 5571 5570 5569 5567 5566 5565 5564 5562 5561 5558 5556 5556 5555 5553 5550 5550 5551 5549 5546 5546 5548 5552 5552 5552 5551 5551 5551 5551 5551 5551 5551 5551 5550 5549 5548 5547 5546 5545
5571 5570 5570 5568 5568 5567 5567 5566 5565 5562 5561 5560 5558 5556 5555 5553 5551 5550 5548 5548 5546 5543 5544 5544 5543 5541 5542 5542 5542 5542 5543 5542 5542 5542 5541 5541 5541 5540 5540 5540 5538 5538 5537 5536
5567 5566 5565 5565 5565 5564 5563 5562 5559 5556 5555 5553 5551 5550 5548 5547 5545 5543 5542 5542 5540 5539 5539 5538 5537 5536 5536 5536 5535 5535 5535 5535 5534 5534 5533 5532 5532 5531 5531 5530 5530 5529 5528 5527